Home > Time Zones > World Clock > Weather > U.S.A. > Nome > Past weeks

Flag for U.S.A. Weather past 2 weeks in Nome, Alaska, U.S.A.

Now
54 °F

Broken clouds.


Feels Like: 51 °F
Forecast: 36 / 49 °F
Wind: 10 mph from North

Location: Nome Airport

Current Time: Sep 1, 2014 at 4:33:47 PM

Latest Report: Sep 1, 2014 at 3:53 PM


Visibility: 10 mi

Pressure: 29.57 "Hg

Humidity: 64%

Dew point: 42 °F

Location of NomeLocation

Historic Weather in Nome — Graph

°F

Nome temperature yesterday

Maximum temperature yesterday: 52 °F (at 11:53 PM)
Minimum temperature yesterday: 39 °F (at 1:53 AM)
Average temperature yesterday: 47 °F

Past Weeks' High & Low Weather Summary

 TemperatureHumidityPressure
High69 °F (Aug 24, 4:53 PM)100% (Aug 18, 6:53 AM)30.26 "Hg (Aug 18, 6:53 AM)
Low32 °F (Aug 30, 4:53 AM)31% (Aug 24, 4:53 PM)29.46 "Hg (Sep 1, 10:03 AM)
Average52 °F78%29.86 "Hg
* Reported Aug 17 2:53 PM — Sep 1 2:53 PM, Nome, Weather by CustomWeather, © 2014

Note: Actual official high and low records may vary slightly from our data, if they occured in-between our weather recording intervals... More about our weather records

Advertising

Nome weather history for previous 24 hours

 ConditionsComfort  
Time TempWeatherWind HumidityBarometerVisibility
2:53 PM
Sep 1
51 °FPartly sunny.15 mph69%29.55 "Hg10 mi
1:53 PM51 °FBroken clouds.12 mph74%29.52 "Hg10 mi
1:00 PM50 °FCloudy.15 mph80%29.50 "Hg10 mi
11:53 AM51 °FCloudy.9 mph92%29.47 "Hg10 mi
10:53 AM50 °FLight rain. Low clouds.20 mph100%29.46 "Hg8 mi
10:03 AM52 °FLight rain. Fog.20 mph97%29.46 "Hg2 mi
8:53 AM51 °FLight rain. Fog.21 mph100%29.47 "Hg3 mi
7:53 AM51 °FLight rain. Fog.21 mph100%29.49 "Hg5 mi
6:53 AM51 °FLight rain. Low clouds.25 mph100%29.51 "Hg8 mi
5:53 AM51 °FRain. Fog.25 mph100%29.52 "Hg5 mi
4:53 AM51 °FLight rain. Fog.23 mph100%29.54 "Hg6 mi
3:53 AM51 °FRain. Fog.22 mph100%29.55 "Hg5 mi
2:53 AM52 °FRain. Fog.26 mph97%29.56 "Hg4 mi
1:53 AM52 °FLight rain. Fog.24 mph97%29.57 "Hg4 mi
12:53 AM52 °FRain. Fog.23 mph97%29.57 "Hg3 mi
11:53 PM
Aug 31
52 °FLight rain. Fog.22 mph97%29.59 "Hg4 mi
10:53 PM51 °FLight rain. Fog.22 mph100%29.60 "Hg4 mi
9:53 PM51 °FLight rain. Fog.24 mph100%29.63 "Hg5 mi
8:53 PM51 °FLight rain. Fog.20 mph96%29.66 "Hg4 mi
7:53 PM51 °FLight rain. Fog.24 mph96%29.68 "Hg2 mi
6:53 PM51 °FLight rain. Mostly cloudy.22 mph92%29.70 "Hg9 mi
5:53 PM51 °FMostly cloudy.24 mph89%29.72 "Hg9 mi
4:53 PM51 °FLight rain. Mostly cloudy.20 mph86%29.74 "Hg10 mi
Weather by CustomWeather, © 2014

See weather overviewHow to use our weather pages